When you browse on this site, cookies collect data to enhance your experience and personalize the content and advertising you see.
Visit our Privacy Policy to learn more. By continuing to use the site, you agree to this use of cookies and data.
  • In Belgien
  • Länderverzeichnis
  • Für 7 Tage
  • Wassertemperatur
  • Satellitenkarten
  • Wetterkarte
  • Widgets
  • user-avatar
    Anmelden

    Stündliche Wetter Gremyachiy Kolodez

    Heute, 24 April, Mittwoch

    Zeit Temperatur Niederschläge Wind Luftdruck Luftfeuchtigkeit
    00:00 +12°C° 0 mm 3 m/S 753 mmHg 55%
    01:00 +12°C° 0 mm 3 m/S 753 mmHg 57%
    02:00 +11°C° 0 mm 3 m/S 753 mmHg 60%
    03:00 +12°C° 0 mm 2 m/S 753 mmHg 60%
    04:00 +10°C° 0 mm 2 m/S 753 mmHg 62%
    05:00 +10°C° 0 mm 2 m/S 753 mmHg 64%
    06:00 +10°C° 0 mm 2 m/S 753 mmHg 65%
    07:00 +11°C° 0 mm 3 m/S 753 mmHg 61%
    08:00 +13°C° 0 mm 3 m/S 754 mmHg 56%
    09:00 +16°C° 0 mm 3 m/S 754 mmHg 50%
    10:00 +17°C° 0 mm 3 m/S 754 mmHg 46%
    11:00 +18°C° 0 mm 3 m/S 754 mmHg 42%
    12:00 +20°C° 0 mm 4 m/S 754 mmHg 37%
    13:00 +20°C° 0 mm 4 m/S 753 mmHg 36%
    14:00 +21°C° 0 mm 4 m/S 753 mmHg 35%
    15:00 +22°C° 0 mm 3 m/S 753 mmHg 32%
    16:00 +22°C° 0 mm 3 m/S 753 mmHg 35%
    17:00 +23°C° 0 mm 2 m/S 752 mmHg 37%
    18:00 +21°C° 0 mm 2 m/S 752 mmHg 39%
    19:00 +20°C° 0 mm 2 m/S 752 mmHg 43%
    20:00 +18°C° 0 mm 2 m/S 752 mmHg 47%
    21:00 +17°C° 0 mm 2 m/S 752 mmHg 51%
    22:00 +16°C° 0 mm 2 m/S 752 mmHg 52%
    23:00 +15°C° 0 mm 2 m/S 752 mmHg 54%

    Morgen, 25 April, Donnerstag

    Zeit Temperatur Niederschläge Wind Luftdruck Luftfeuchtigkeit
    00:00 +15°C° 0 mm 2 m/S 753 mmHg 56%
    01:00 +14°C° 0 mm 2 m/S 753 mmHg 57%
    02:00 +14°C° 0 mm 2 m/S 753 mmHg 58%
    03:00 +13°C° 0 mm 2 m/S 753 mmHg 59%
    04:00 +13°C° 0 mm 2 m/S 753 mmHg 60%
    05:00 +13°C° 0 mm 2 m/S 753 mmHg 62%
    06:00 +13°C° 0 mm 2 m/S 753 mmHg 63%
    07:00 +14°C° 0 mm 2 m/S 753 mmHg 58%
    08:00 +16°C° 0 mm 2 m/S 753 mmHg 53%
    09:00 +18°C° 0 mm 2 m/S 753 mmHg 47%
    10:00 +20°C° 0 mm 2 m/S 753 mmHg 43%
    11:00 +21°C° 0 mm 2 m/S 753 mmHg 39%
    12:00 +23°C° 0 mm 2 m/S 753 mmHg 35%
    13:00 +24°C° 0 mm 2 m/S 752 mmHg 34%
    14:00 +24°C° 0 mm 2 m/S 752 mmHg 32%
    15:00 +25°C° 0 mm 2 m/S 752 mmHg 31%
    16:00 +24°C° 0 mm 2 m/S 751 mmHg 33%
    17:00 +24°C° 0 mm 2 m/S 751 mmHg 35%
    18:00 +24°C° 0 mm 2 m/S 751 mmHg 37%
    19:00 +21°C° 0 mm 2 m/S 751 mmHg 41%
    20:00 +20°C° 0 mm 2 m/S 751 mmHg 45%
    21:00 +18°C° 0 mm 2 m/S 750 mmHg 49%
    22:00 +17°C° 0 mm 2 m/S 750 mmHg 51%
    23:00 +17°C° 0 mm 2 m/S 750 mmHg 52%

    übermorgen, 26 April, Freitag

    Zeit Temperatur Niederschläge Wind Luftdruck Luftfeuchtigkeit
    00:00 +16°C° 0 mm 2 m/S 750 mmHg 54%
    01:00 +16°C° 0 mm 2 m/S 750 mmHg 56%
    02:00 +15°C° 0 mm 2 m/S 750 mmHg 58%
    03:00 +14°C° 0 mm 2 m/S 750 mmHg 60%
    04:00 +14°C° 0 mm 2 m/S 750 mmHg 61%
    05:00 +14°C° 0 mm 1 m/S 750 mmHg 62%
    06:00 +14°C° 0 mm 1 m/S 750 mmHg 63%
    07:00 +15°C° 0 mm 1 m/S 750 mmHg 60%
    08:00 +18°C° 0 mm 1 m/S 750 mmHg 56%
    09:00 +19°C° 0 mm 1 m/S 750 mmHg 52%
    10:00 +21°C° 0 mm 1 m/S 750 mmHg 48%
    11:00 +22°C° 0 mm 1 m/S 750 mmHg 43%
    12:00 +24°C° 0 mm 1 m/S 750 mmHg 39%
    13:00 +24°C° 0 mm 1 m/S 750 mmHg 38%
    14:00 +21°C° 0 mm 0 m/S 749 mmHg 38%
    15:00 +21°C° 0 mm 0 m/S 749 mmHg 38%
    16:00 +21°C° 0.1 mm 0 m/S 749 mmHg 42%
    17:00 +20°C° 0.1 mm 0 m/S 749 mmHg 45%
    18:00 +19°C° 0.1 mm 0 m/S 748 mmHg 49%
    19:00 +18°C° 0.4 mm 0 m/S 748 mmHg 53%
    20:00 +19°C° 0.4 mm 1 m/S 748 mmHg 57%
    21:00 +18°C° 0.4 mm 1 m/S 748 mmHg 60%
    22:00 +18°C° 0.4 mm 1 m/S 748 mmHg 63%
    23:00 +15°C° 0.4 mm 0 m/S 748 mmHg 67%

    27 April, Samstag

    Zeit Temperatur Niederschläge Wind Luftdruck Luftfeuchtigkeit
    00:00 +14°C° 0.4 mm 0 m/S 748 mmHg 70%
    01:00 +14°C° 0 mm 0 m/S 748 mmHg 71%
    02:00 +14°C° 0 mm 1 m/S 747 mmHg 72%
    03:00 +14°C° 0 mm 1 m/S 747 mmHg 73%
    04:00 +14°C° 0 mm 1 m/S 747 mmHg 73%
    05:00 +14°C° 0 mm 1 m/S 747 mmHg 74%
    06:00 +13°C° 0 mm 2 m/S 746 mmHg 75%
    07:00 +15°C° 0 mm 2 m/S 746 mmHg 69%
    08:00 +17°C° 0 mm 3 m/S 746 mmHg 63%
    09:00 +19°C° 0 mm 3 m/S 746 mmHg 57%
    10:00 +20°C° 0 mm 3 m/S 746 mmHg 51%
    11:00 +21°C° 0 mm 4 m/S 745 mmHg 45%
    12:00 +22°C° 0 mm 4 m/S 745 mmHg 40%
    13:00 +22°C° 0 mm 4 m/S 745 mmHg 41%
    14:00 +22°C° 0 mm 4 m/S 744 mmHg 42%
    15:00 +22°C° 0 mm 4 m/S 744 mmHg 43%
    16:00 +21°C° 0 mm 4 m/S 744 mmHg 46%
    17:00 +21°C° 0 mm 3 m/S 743 mmHg 49%
    18:00 +20°C° 0 mm 3 m/S 743 mmHg 52%
    19:00 +19°C° 0 mm 3 m/S 743 mmHg 56%
    20:00 +18°C° 0 mm 3 m/S 743 mmHg 59%
    21:00 +16°C° 0 mm 3 m/S 743 mmHg 62%
    22:00 +16°C° 0 mm 3 m/S 742 mmHg 64%
    23:00 +14°C° 0 mm 3 m/S 742 mmHg 65%

    28 April, Sonntag

    Zeit Temperatur Niederschläge Wind Luftdruck Luftfeuchtigkeit
    00:00 +13°C° 0 mm 3 m/S 742 mmHg 67%
    01:00 +13°C° 0 mm 3 m/S 742 mmHg 68%
    02:00 +12°C° 0 mm 3 m/S 742 mmHg 70%
    03:00 +12°C° 0 mm 3 m/S 742 mmHg 71%
    04:00 +12°C° 0 mm 3 m/S 741 mmHg 73%
    05:00 +11°C° 0 mm 3 m/S 741 mmHg 75%
    06:00 +11°C° 0 mm 3 m/S 741 mmHg 77%
    07:00 +13°C° 0 mm 3 m/S 741 mmHg 72%
    08:00 +16°C° 0 mm 3 m/S 741 mmHg 67%
    09:00 +17°C° 0 mm 3 m/S 741 mmHg 62%
    10:00 +17°C° 0.5 mm 2 m/S 741 mmHg 65%
    11:00 +17°C° 0.5 mm 2 m/S 741 mmHg 68%
    12:00 +17°C° 0.5 mm 2 m/S 741 mmHg 71%
    13:00 +16°C° 3 mm 2 m/S 741 mmHg 78%
    14:00 +14°C° 3 mm 3 m/S 741 mmHg 84%
    15:00 +13°C° 3 mm 3 m/S 741 mmHg 91%
    16:00 +13°C° 1.2 mm 5 m/S 741 mmHg 89%
    17:00 +11°C° 1.2 mm 6 m/S 742 mmHg 87%
    18:00 +11°C° 1.2 mm 7 m/S 742 mmHg 85%
    19:00 +10°C° 0 mm 7 m/S 742 mmHg 84%
    20:00 +9°C° 0 mm 7 m/S 743 mmHg 82%
    21:00 +8°C° 0 mm 7 m/S 744 mmHg 81%
    22:00 +8°C° 0 mm 7 m/S 744 mmHg 77%
    23:00 +6°C° 0 mm 7 m/S 745 mmHg 73%

    29 April, Montag

    Zeit Temperatur Niederschläge Wind Luftdruck Luftfeuchtigkeit
    00:00 +6°C° 0 mm 7 m/S 745 mmHg 70%
    01:00 +5°C° 0 mm 7 m/S 746 mmHg 70%
    02:00 +4°C° 0 mm 7 m/S 746 mmHg 70%
    03:00 +4°C° 0 mm 7 m/S 747 mmHg 71%
    04:00 +3°C° 0 mm 7 m/S 747 mmHg 70%
    05:00 +2°C° 0 mm 6 m/S 748 mmHg 69%
    06:00 +2°C° 0 mm 6 m/S 748 mmHg 68%
    07:00 +2°C° 0 mm 6 m/S 748 mmHg 63%
    08:00 +3°C° 0 mm 7 m/S 749 mmHg 58%
    09:00 +3°C° 0 mm 7 m/S 749 mmHg 53%
    10:00 +4°C° 0 mm 7 m/S 749 mmHg 50%
    11:00 +5°C° 0 mm 7 m/S 750 mmHg 47%
    12:00 +5°C° 0 mm 7 m/S 750 mmHg 44%
    13:00 +7°C° 0 mm 6 m/S 749 mmHg 43%
    14:00 +7°C° 0 mm 6 m/S 749 mmHg 43%
    15:00 +7°C° 0 mm 6 m/S 749 mmHg 42%
    16:00 +7°C° 0 mm 5 m/S 749 mmHg 44%
    17:00 +7°C° 0 mm 5 m/S 749 mmHg 46%
    18:00 +7°C° 0 mm 5 m/S 749 mmHg 48%
    19:00 +6°C° 0 mm 4 m/S 749 mmHg 51%
    20:00 +5°C° 0 mm 4 m/S 749 mmHg 54%
    21:00 +4°C° 0 mm 3 m/S 750 mmHg 58%
    22:00 +4°C° 0 mm 3 m/S 750 mmHg 58%
    23:00 +4°C° 0 mm 3 m/S 750 mmHg 59%
    Mehr zeigen